This demonstration page uses our WeatherBlox Daily Observations layout. Learn more.

Left ArrowRight Arrow

39.92423, -83.80882

Hourly Observations for March 12, 2018

Temp ( °F °C ) Dew Point ( °F °C ) Humidity (%) Winds ( mph kmh ) Pressure ( in mb ) Visibility ( mi km ) Precip ( " mm )
12:56 am 00:56 Clear 31 -0.6 21 -6.1 67 67 NNE 15 24 30.06 1018 10 16 N/A
1:56 am 01:56 Clear 31 -0.6 21 -6.1 67 67 NNE 10 17 30.06 1018 10 16 N/A
2:56 am 02:56 Clear 30 -1.1 21 -6.1 69 69 NNE 12 19 30.06 1018 10 16 N/A
3:56 am 03:56 Clear 29 -1.7 21 -6.1 72 72 N 12 19 30.04 1017 10 16 N/A
4:56 am 04:56 Clear 28 -2.2 20 -6.7 72 72 NNE 13 20 30.01 1016 10 16 N/A
5:56 am 05:56 Clear 26 -3.3 20 -6.7 78 78 N 12 19 30.03 1017 10 16 N/A
6:56 am 06:56 Clear 25 -3.9 20 -6.7 81 81 N 10 17 30.04 1017 10 16 N/A
7:56 am 07:56 Sunny 23 -5 19 -7.2 85 85 N 7 11 30.04 1017 10 16 N/A
8:56 am 08:56 Sunny 26 -3.3 21 -6.1 81 81 NNW 7 11 30.05 1018 10 16 N/A
9:56 am 09:56 Sunny 30 -1.1 23 -5 75 75 N 8 13 30.04 1017 10 16 N/A
10:56 am 10:56 Sunny 34 1.1 21 -6.1 59 59 NNW 10 17 30.04 1017 10 16 N/A
11:56 am 11:56 Sunny 35 1.7 21 -6.1 57 57 NNW 13 20 30.04 1017 10 16 N/A
12:56 pm 12:56 Sunny 38 3.3 22 -5.6 52 52 NW 15 24 30.03 1017 10 16 N/A
1:56 pm 13:56 Partly Cloudy with Light Rain 38 3.3 26 -3.3 62 62 NNW 17 28 30.02 1017 10 16 N/A
2:56 pm 14:56 Partly Cloudy with Light Rain 36 2.2 27 -2.8 70 70 WNW 15 24 30.01 1016 10 16 N/A
3:56 pm 15:56 Sunny 36 2.2 27 -2.8 70 70 NW 16 26 30.01 1016 10 16 N/A
4:56 pm 16:56 Sunny 37 2.8 27 -2.8 67 67 NW 14 22 30.01 1016 10 16 N/A
5:56 pm 17:56 Partly Cloudy with Light Rain 37 2.8 28 -2.2 70 70 WNW 15 24 30.01 1016 10 16 N/A
6:56 pm 18:56 Sunny 36 2.2 28 -2.2 73 73 NW 12 19 30.03 1017 10 16 N/A
7:56 pm 19:56 Mostly Clear with Light Rain 35 1.7 29 -1.7 78 78 NW 12 19 30.05 1018 3 5 N/A
8:56 pm 20:56 Clear 33 0.6 29 -1.7 85 85 WNW 10 17 30.06 1018 10 16 N/A
9:56 pm 21:56 Clear 29 -1.7 27 -2.8 92 92 W 8 13 30.08 1019 10 16 N/A
10:56 pm 22:56 Mostly Clear with Light Wintry Mix 32 undefined 29 -1.7 88 88 WNW 9 15 30.08 1019 10 16 N/A
11:56 pm 23:56 Clear 31 -0.6 27 -2.8 85 85 NW 9 15 30.08 1019 10 16 N/A

Powered by AerisWeather